x

9410230 - La Jolla, Ca (ljac1) Weather Station

10:30 - Fri 28th Aug 2015 All times are PDT. -7 hours from GMT.

  • Wind
    1mph, 2mph gusts
  • Sea Temp 72°f
  • Luft Temp 79°f
  • Sea Pressure 1012.2mb
  • 9410230 - La Jolla, Ca
  • 9410230 - La Jolla, Ca

More Historic Weather Station data

Upgrade to MSW Pro to gain access to the past 30 days of data for over 8000 Wavebouys and Weather Stations around the globe.

Join Pro

Comparision Forecast

View Surf forecast
   
Fr 08/28 10:30 1 2 mph 1012.2mb 72f 79f
10:24 2
mph
1012.3mb 72f 78f
10:18 1 3 mph 1012.3mb 72f 79f
10:12 2 3 mph 1012.2mb 72f 78f
10:06 2 3 mph 1012.2mb 72f 78f
10:00  -  1 mph 1012.2mb 72f 79f
9:54 1 2 mph 1012.1mb 72f 78f
9:48 1 2 mph 1012.1mb 71f 79f
9:42 1 2 mph 1012.1mb 71f 79f
9:36  -  2 mph 1012.2mb 71f 78f
9:30 2 3 mph 1012.2mb 71f 78f
9:24 2 3 mph 1012.2mb 71f 78f
9:18 1 3 mph 1012.3mb 72f 77f
9:12 3
mph
1012.3mb 72f 77f
9:06 2
mph
1012.2mb 72f 77f
9:00 1
mph
1012.2mb 72f 77f
8:54 1 3 mph 1012.3mb 72f 76f
8:48 2
mph
1012.2mb 72f 76f
8:42 1 2 mph 1012.2mb 72f 78f
8:36 1 2 mph 1012.2mb 72f 78f
8:30 2 3 mph 1012.2mb 72f 77f
8:24 2
mph
1012.2mb 73f 78f
8:18  -  1 mph 1012.1mb 73f 79f
8:12  -  1 mph 1012.1mb 73f 78f
8:06 1 2 mph 1012.2mb 73f 77f
8:00 2 3 mph 1012.2mb 73f 77f
7:54 1
mph
1012.2mb 74f 78f
7:48  -  2 mph 1012.1mb 74f 78f
7:42 2
mph
1012.1mb 74f 76f
7:36  -  1 mph 1012.1mb 73f 76f
7:30  -  2 mph 1012mb 74f 76f
7:24 1 2 mph 1011.9mb 74f 75f
7:18 1 2 mph 1011.9mb 74f 74f
7:12 2 3 mph 1011.9mb 74f 73f
7:06 1 2 mph 1011.9mb 73f 73f
7:00 2
mph
1012mb 73f 73f
6:54 2
mph
1011.9mb 73f 73f
6:48 1 2 mph 1011.8mb 73f 73f
6:42 2 3 mph 1011.8mb 73f 73f
6:36 2
mph
1011.8mb 73f 73f
6:30 2
mph
1011.6mb 73f 73f
6:24 1
mph
1011.6mb 73f 73f
6:18  -  1 mph 1011.5mb 73f 73f
6:12  -  2 mph 1011.6mb 72f 73f
6:06 1 2 mph 1011.5mb 72f 73f
6:00 2
mph
1011.5mb 73f 72f
5:54 2
mph
1011.5mb 73f 72f
5:48  -  1 mph 1011.5mb 73f 72f
5:42 1
mph
1011.5mb 73f 72f
5:36  -  2 mph 1011.6mb 73f 72f
5:30 2
mph
1011.5mb 73f 73f
5:24 1
mph
1011.5mb 73f 73f
5:18  -  mph 1011.4mb 73f 73f
5:12  -  1 mph 1011.4mb 73f 73f
5:06  -  2 mph 1011.3mb 73f 73f
5:00 2
mph
1011.3mb 74f 73f
4:54  -  2 mph 1011.4mb 74f 72f
4:48 1 2 mph 1011.4mb 74f 72f
4:42 1 2 mph 1011.4mb 74f 72f
4:36 1 2 mph 1011.5mb 74f 72f
4:30 2
mph
1011.5mb 74f 72f
4:24 2
mph
1011.5mb 74f 72f
4:18 1 2 mph 1011.4mb 74f 72f
4:12  -  1 mph 1011.4mb 74f 72f
4:06  -  1 mph 1011.5mb 74f 72f
4:00 1 2 mph 1011.5mb 74f 72f
3:54 1
mph
1011.5mb 74f 72f
3:48  -  1 mph 1011.5mb 74f 72f
3:42  -  1 mph 1011.5mb 74f 72f
3:36  -  1 mph 1011.6mb 74f 72f
3:30 1
mph
1011.7mb 73f 72f
3:24  -  1 mph 1011.7mb 73f 72f
3:18  -  1 mph 1011.7mb 73f 72f
3:12  -  1 mph 1011.7mb 73f 72f
3:06  -  1 mph 1011.7mb 73f 73f
3:00  -  1 mph 1011.7mb 73f 73f
2:54  -  1 mph 1011.8mb 73f 73f
2:48  -  1 mph 1011.8mb 73f 73f
2:42  -  1 mph 1011.8mb 73f 73f
2:36  -  1 mph 1011.9mb 73f 73f
2:30 1 2 mph 1012mb 73f 73f
2:24 2
mph
1012mb 73f 73f
2:18 1
mph
1012mb 73f 73f
2:12  -  1 mph 1012mb 73f 73f
2:06 1 2 mph 1012mb 73f 73f
2:00 1 2 mph 1012.1mb 73f 73f
1:54 3
mph
1012.2mb 73f 73f
1:48 3
mph
1012.2mb 73f 73f
1:42 2
mph
1012.2mb 73f 73f
1:36  -  2 mph 1012.3mb 73f 73f
1:30 2
mph
1012.4mb 74f 73f
1:24 1 2 mph 1012.5mb 74f 73f
1:18 1
mph
1012.5mb 73f 73f
1:12 1
mph
1012.4mb 73f 73f
1:06  -  1 mph 1012.4mb 73f 73f
1:00 2 5 mph 1012.5mb 73f 73f
12:54 2 3 mph 1012.5mb 73f 74f
12:48 2 3 mph 1012.5mb 73f 74f
12:42  -  mph 1012.4mb 73f 74f
12:36  -  mph 1012.4mb 73f 74f
12:30  -  3 mph 1012.4mb 73f 74f
12:24 2 5 mph 1012.4mb 73f 74f
12:18  -  mph - - 74f
12:12  -  mph - - 74f
12:06  -  mph - - 74f
12:00 1 2 mph 1012.4mb 74f 74f
Do 08/27 11:54  -  1 mph 1012.4mb 74f 74f
11:48  -  mph 1012.6mb 75f 73f
11:42  -  1 mph 1012.7mb 75f 73f
11:36 1 3 mph 1012.7mb 75f 73f
11:30 2 3 mph 1012.7mb 75f 74f
11:24  -  3 mph 1012.6mb 75f 74f
11:18 3 5 mph 1012.7mb 74f 74f
11:12 2
mph
1012.8mb 74f 74f
11:06  -  3 mph 1012.6mb 73f 74f
11:00  -  2 mph 1012.6mb 72f 74f
10:54 2 3 mph 1012.7mb 72f 74f
10:48 1 3 mph 1012.7mb 71f 74f
10:42 3 5 mph 1012.7mb 71f 74f
10:36 2
mph
1012.7mb 71f 74f
10:30 2 3 mph 1012.8mb 71f 74f
10:24  -  1 mph 1012.8mb 71f 74f
10:18  -  1 mph 1012.9mb 71f 74f
10:12  -  mph 1013mb 71f 74f
10:06  -  1 mph 1013mb 71f 74f
10:00  -  2 mph 1013.1mb 71f 74f
9:54 1 2 mph 1013mb 71f 74f
9:48  -  mph 1013mb 71f 74f
9:42  -  mph 1013mb 71f 74f
9:36  -  mph 1013.1mb 71f 74f
9:30  -  1 mph 1013.1mb 71f 74f
9:24  -  1 mph 1013.2mb 71f 74f
9:18  -  2 mph 1013.2mb 71f 74f
9:12 1 2 mph 1013.1mb 71f 74f
9:06 2
mph
1013.2mb 71f 74f
9:00 1 2 mph 1013.1mb 71f 74f
8:54 2
mph
1013.1mb 71f 74f
8:48 2 3 mph 1013.1mb 71f 74f
8:42 2 5 mph 1013mb 71f 74f
8:36 3 6 mph 1012.9mb 72f 74f
8:30 5 6 mph 1012.7mb 72f 74f
8:24 5 6 mph 1012.5mb 72f 74f
8:18 3
mph
1012.5mb 72f 74f
8:12 3
mph
1012.5mb 72f 74f
8:06 3 5 mph 1012.4mb 72f 74f
8:00 3
mph
1012.4mb 72f 74f
7:54 2 3 mph 1012.4mb 72f 75f
7:48 2 3 mph 1012.2mb 72f 74f
7:42 3
mph
1012.2mb 72f 75f
7:36  -  mph 1012.3mb 72f 75f
7:30  -  1 mph 1012.2mb 72f 75f
7:24 2 3 mph 1012.1mb 72f 75f
7:18 2 3 mph 1012mb 72f 74f
7:12 3 5 mph 1012mb 72f 74f
7:06 3 5 mph 1011.8mb 72f 75f
7:00 5
mph
1011.8mb 72f 75f
6:54 5
mph
1011.8mb 72f 75f
6:48 3 5 mph 1011.9mb 72f 75f
6:42 5 6 mph 1011.9mb 72f 76f
6:36 5 6 mph 1011.9mb 72f 76f
6:30 3 5 mph 1012mb 72f 76f
6:24 3 5 mph 1012mb 72f 76f
6:18 5 6 mph 1012mb 72f 75f
6:12 6 7 mph 1012mb 72f 75f
6:06 6 7 mph 1011.9mb 72f 75f
6:00 6 7 mph 1012mb 72f 75f
5:54 6 7 mph 1012mb 72f 76f
5:48 6
mph
1012mb 72f 76f
5:42 6 7 mph 1012mb 72f 76f
5:36 5
mph
1012mb 72f 76f
5:30 5 6 mph 1012.1mb 72f 76f
5:24 5 6 mph 1012.1mb 72f 76f
5:18 5 6 mph 1012.2mb 72f 76f
5:12 5 6 mph 1012.3mb 72f 76f
5:06 5 6 mph 1012.3mb 72f 76f
5:00 5 6 mph 1012.4mb 72f 76f
4:54 5 6 mph 1012.5mb 72f 76f
4:48 5 6 mph 1012.4mb 72f 76f
4:42 5 6 mph 1012.4mb 72f 78f
4:36 5
mph
1012.4mb 72f 78f
4:30 1 2 mph 1012.6mb 72f 79f
4:24 1 2 mph 1012.6mb 72f 79f
4:18 2 3 mph 1012.4mb 72f 78f
4:12 1 2 mph 1012.4mb 72f 80f
4:06  -  3 mph 1012.4mb 72f 81f
4:00 1 2 mph 1012.4mb 72f 80f
3:54 2 3 mph 1012.2mb 72f 78f
3:48 2 5 mph 1012.2mb 72f 78f
3:42 2 3 mph 1012.2mb 72f 78f
3:36 2 3 mph 1012.3mb 72f 78f
3:30 2 3 mph 1012.5mb 72f 78f
3:24 2 3 mph 1012.7mb 72f 79f
3:18 2 3 mph 1012.9mb 72f 78f
3:12 2 5 mph 1013mb 72f 79f
3:06 2 3 mph 1013.1mb 72f 79f
3:00 2 3 mph 1013.3mb 72f 79f
2:54 2 3 mph 1013.4mb 72f 80f
2:48 2 3 mph 1013.5mb 72f 80f
2:42 1 2 mph 1013.6mb 72f 79f
2:36 1 2 mph 1013.6mb 72f 78f
2:30 2
mph
1013.6mb 72f 78f
2:24 1 2 mph 1013.6mb 72f 78f
2:18  -  2 mph 1013.7mb 72f 78f
2:12 1 3 mph 1013.8mb 72f 76f
2:06 2 3 mph 1013.8mb 72f 76f
2:00 3 5 mph 1013.8mb 72f 75f
1:54 3 5 mph 1013.9mb 72f 75f
1:48 3 6 mph 1013.9mb 72f 75f
1:42 3 5 mph 1014mb 72f 75f
1:36 5 6 mph 1014.1mb 72f 75f
1:30 3 6 mph 1014.1mb 72f 75f
1:24 5 6 mph 1014.2mb 72f 74f
1:18  -  mph 1014.3mb - -
1:12  -  mph 1014.3mb 72f 74f
1:06 5 6 mph 1014.4mb 73f 74f
1:00 5 6 mph - - -
12:54 5
mph
- - -
12:48  -  mph - 72f 74f
12:42  -  mph - 72f 74f
12:36  -  mph - 73f 75f
12:30 3 5 mph 1014.9mb 73f 75f
12:24 3 5 mph 1014.9mb 73f 75f
12:18  -  mph 1015.1mb - 76f
12:12  -  mph 1015.1mb - 76f
12:06  -  mph 1015.1mb - 76f
12:00 5
mph
- - 76f
11:54 3 5 mph - - 76f
11:48 2 5 mph - - 77f
11:42 3 5 mph - - 77f
11:36 2 3 mph - - 76f
11:30  -  mph - 72f -
11:24  -  mph - 72f -
11:18 1 3 mph 1015.5mb 72f 75f
11:12 2 3 mph 1015.4mb 72f 75f
11:06 3
mph
1015.4mb 72f 74f
11:00 3 5 mph 1015.4mb 72f 74f
10:54 3
mph
1015.4mb 72f 74f
10:48 3 5 mph 1015.5mb 72f 74f
10:42 2
mph
1015.5mb 72f 74f
10:36 2
mph
1015.6mb 72f 74f
10:30 2 3 mph 1015.6mb 72f 74f
10:24 2 3 mph 1015.7mb 72f 74f
10:18 2 3 mph 1015.6mb 73f 74f
10:12 3 5 mph 1015.6mb 73f 74f
10:06 3 5 mph 1015.5mb 74f 74f
10:00 2 3 mph 1015.5mb 74f 75f
9:54 2 3 mph 1015.5mb 74f 75f
9:48 2 5 mph 1015.5mb 74f 74f
9:42 3 5 mph 1015.5mb 74f 74f
9:36 2 3 mph 1015.5mb 74f 74f
9:30  -  mph - - 74f
9:24  -  mph - - 74f
9:18 3 5 mph 1015.4mb 74f 75f
9:12 2 5 mph 1015.4mb 74f 75f
9:06 3
mph
1015.4mb 74f 75f
9:00 2 3 mph 1015.3mb 74f 75f
8:54 2 3 mph 1015.3mb 74f 76f
8:48  -  mph - 74f 76f
8:42  -  mph - 74f 76f
8:36  -  mph - 74f 76f
8:30  -  1 mph 1015.3mb 74f 76f
8:24 1 2 mph 1015.2mb 74f 75f
8:18  -  mph - - 75f
8:12  -  mph - - 75f
8:06  -  mph - - 73f
8:00 1 2 mph 1015.2mb 73f 73f
7:54  -  2 mph 1015.1mb 73f 73f
7:48  -  2 mph 1015.1mb 72f 73f
7:42 1 2 mph 1015.1mb 73f 73f
7:36 1 2 mph 1015.1mb 73f 73f
7:30  -  1 mph 1015mb 72f 73f
7:24  -  mph 1014.9mb 72f 73f
7:18  -  1 mph 1014.8mb 72f 72f
7:12 1 2 mph 1014.7mb 72f 72f
7:06 1
mph
1014.7mb 73f 72f
7:00 1
mph
1014.6mb 73f 72f
6:54  -  2 mph 1014.4mb 74f 71f
6:48 1 2 mph 1014.2mb 74f 71f
6:18  -  mph - 75f 71f
6:12  -  mph - 74f 71f
6:06  -  mph - 74f 71f
6:00  -  mph - 73f 71f
5:54  -  mph - 73f 72f
5:48  -  mph - 73f 72f
5:42  -  mph - 72f 72f
5:36  -  mph - 72f 72f
5:30  -  mph - 72f 72f
5:24  -  mph - 72f 72f
5:18  -  mph - 72f 72f
5:12  -  mph - 73f 72f
5:06  -  mph - 73f 72f
5:00 1 2 mph 1013.7mb 73f 72f
4:54 2
mph
1013.7mb 73f 72f
4:48  -  mph - 73f 72f
4:42  -  mph - 73f 72f
4:36  -  mph - 73f 72f
4:30  -  mph - - 72f
4:24  -  mph - - 72f
4:18  -  1 mph 1013.7mb 73f 71f
4:12 1 2 mph 1013.7mb 73f 71f
4:06  -  1 mph 1013.8mb 73f 71f
4:00 1 2 mph 1013.8mb 73f 72f
3:54  -  2 mph 1013.9mb 73f 72f
3:48 1 2 mph 1013.8mb 73f 72f
3:42  -  2 mph 1014mb 73f 72f
3:36 2 3 mph 1014mb 73f 72f
3:30 2
mph
1013.9mb 72f 72f
3:24  -  1 mph 1013.9mb 72f 72f
3:18  -  1 mph 1013.8mb 73f 72f
3:12  -  2 mph 1013.9mb 73f 72f
3:06 2
mph
1013.9mb 73f 72f
3:00 1 2 mph 1014mb 73f 71f
2:54 2
mph
1014mb 73f 71f
2:48  -  1 mph 1014.1mb 73f 72f
Mi 08/26 10:30  -  mph 1014.7mb 71f 72f
10:24  -  1 mph 1014.7mb 70f 72f
10:18 1 2 mph 1014.7mb 70f 72f
10:12 2
mph
1014.7mb 71f 72f
10:06 1 2 mph 1014.8mb 70f 72f
10:00 1 3 mph 1014.8mb 70f 72f
9:54 2 3 mph 1014.8mb 70f 72f
9:48 2 3 mph 1014.8mb 70f 72f
9:42 2
mph
1014.7mb 71f 72f
9:36 2
mph
1014.7mb 71f 72f
9:30  -  1 mph 1014.6mb 71f 72f
9:24  -  1 mph 1014.6mb 71f 72f
9:18  -  1 mph 1014.6mb 71f 72f
9:12  -  2 mph 1014.6mb 71f 72f
9:06 1 2 mph 1014.5mb 71f 72f
9:00 2
mph
- 71f 72f
8:54 2
mph
- 72f 72f
8:48  -  1 mph 1014.3mb 72f 72f
8:42 1 2 mph 1014.2mb 72f 72f
8:36  -  1 mph 1014.1mb 72f 72f
8:30  -  1 mph 1014mb 72f 72f
8:24  -  1 mph 1014mb 71f 72f
8:18 1 2 mph 1014mb 71f 72f
8:12 1 2 mph 1014.1mb 71f 72f
8:06 2 3 mph 1014mb 71f 72f
8:00 2 3 mph 1013.8mb 71f 72f
7:54 2 5 mph 1013.8mb 70f 72f
7:48 3
mph
1013.8mb 70f 72f
7:42 3 5 mph 1013.8mb 71f 72f
7:36 3 5 mph 1013.7mb 71f 72f
7:30 3 5 mph 1013.8mb 72f 72f
7:24 2 3 mph 1013.8mb 73f 72f
7:18  -  3 mph 1013.7mb 73f 72f
7:12 2 3 mph 1013.6mb 73f 72f
7:06 2
mph
1013.6mb 73f 72f
7:00 2 5 mph 1013.6mb 74f 72f
6:54 3 5 mph 1013.5mb 74f 73f
6:48 3 6 mph 1013.4mb 74f 73f
6:42 5 6 mph 1013.3mb 74f 73f
6:36 3 5 mph 1013.4mb 74f 73f
6:30 2 5 mph 1013.4mb 74f 73f
6:24 3 6 mph 1013.3mb 74f 73f
6:18 5 6 mph 1013.2mb 74f 74f
6:12 5 6 mph 1013.3mb 74f 74f
6:06 3 6 mph 1013.3mb 74f 74f
6:00 3 5 mph 1013.3mb 73f 74f
5:54 3 6 mph 1013.3mb 73f 74f
5:48 5 6 mph 1013.3mb 73f 74f
5:42 3 6 mph 1013.4mb 73f 74f
5:36 5 6 mph 1013.3mb 73f 75f
5:30 3 6 mph 1013.4mb 73f 75f
5:24 5 6 mph 1013.3mb 74f 75f
5:18 5 7 mph 1013.2mb 73f 75f
5:12 5 6 mph 1013.2mb 73f 76f
5:06 5 6 mph 1013.2mb 73f 76f
5:00 5 6 mph 1013.2mb 73f 76f
4:54 6
mph
1013.3mb 73f 76f
4:48 5 6 mph 1013.2mb 73f 76f
4:42 5 6 mph 1013.2mb 73f 76f
4:36 5 6 mph 1013.1mb 73f 76f
4:30 5 6 mph 1013.1mb 73f 76f
4:24 3 5 mph 1013mb 73f 77f
4:18 5
mph
1013mb 73f 77f
4:12 3 5 mph 1013.1mb 73f 77f
4:06 3 5 mph 1013.1mb 73f 77f
4:00 3
mph
1013.2mb 73f 77f
3:54 2 3 mph 1013.3mb 73f 77f
3:48 2 5 mph 1013.4mb 73f 77f
3:42 3 6 mph 1013.4mb 73f 77f
3:36 3 5 mph 1013.4mb 73f 78f
3:30 3 5 mph 1013.4mb 73f 78f
3:24 1 5 mph 1013.4mb 73f 79f
3:18 3 5 mph 1013.4mb 73f 78f
3:12 2 3 mph 1013.5mb 74f 80f
3:06 2 3 mph 1013.6mb 74f 79f
3:00 2 3 mph 1013.6mb 74f 79f
2:54 2 3 mph 1013.7mb 74f 79f
2:48 2 3 mph 1013.7mb 74f 79f
2:42 2 3 mph 1013.8mb 74f 79f
2:36 2 3 mph 1013.8mb 74f 78f
2:30 2
mph
1013.9mb 74f 79f
2:24 1 3 mph 1013.9mb 74f 80f
2:18 1 2 mph 1014mb 74f 80f
2:12 2
mph
1014mb 74f 79f
2:06 2
mph
1014.1mb 74f 79f
2:00 1 2 mph 1014.2mb 74f 78f
1:54 1 2 mph 1014.3mb 74f 77f
1:48 1 2 mph 1014.4mb 74f 76f
1:42 2 3 mph 1014.4mb 74f 76f
1:36 2 3 mph 1014.5mb 74f 76f
1:30 2 5 mph 1014.5mb 74f 76f
1:24 3 5 mph 1014.5mb 74f 76f
1:18 3 5 mph 1014.5mb 74f 76f
1:12 3 5 mph 1014.6mb 74f 75f
1:06 5 6 mph 1014.7mb 74f 75f
1:00 5 6 mph 1014.8mb 74f 74f
12:54 3 5 mph 1014.8mb 74f 74f
12:48 5 6 mph 1014.8mb 74f 74f
12:42 3 5 mph 1014.8mb 74f 75f
12:36 2 5 mph 1014.8mb 74f 75f
12:30 3
mph
1014.9mb 74f 75f
12:24 3 5 mph 1015mb 74f 74f
12:18 2 5 mph 1015mb 74f 74f
12:12 3 5 mph 1015.1mb 74f 73f
12:06 5 6 mph 1015.1mb 74f 73f
12:00 3
mph
1015.1mb 73f 74f
11:54 2 5 mph 1015.1mb 73f 74f
11:48 3 5 mph 1015.1mb 73f 73f
11:42 3 5 mph 1015.2mb 73f 73f
11:36 5
mph
1015.2mb 73f 72f
11:30 5 6 mph 1015.3mb 72f 72f
11:24 3 6 mph 1015.3mb 72f 72f
11:18 5 6 mph 1015.3mb 72f 72f
11:12 5 6 mph 1015.4mb 71f 72f
11:06 5 6 mph 1015.3mb 71f 72f
11:00 6 7 mph 1015.3mb 71f 72f
10:54 6 7 mph 1015.4mb 71f 72f
10:48 6
mph
1015.4mb 72f 72f
10:42 6
mph
1015.4mb 71f 72f
10:36 5 6 mph 1015.4mb 71f 72f
10:30 5 6 mph 1015.4mb 72f 72f
10:24 6
mph
1015.4mb 72f 72f
10:18 6
mph
1015.4mb 72f 72f
10:12 6
mph
1015.3mb 72f 72f
10:06 6
mph
1015.4mb 72f 72f
9:54 6 7 mph 1015.4mb 71f 72f
9:48 6
mph
1015.4mb 71f 72f
9:42 6
mph
1015.4mb 72f 73f
9:36 6
mph
1015.4mb 72f 73f
9:30 5 6 mph 1015.3mb 73f 73f
9:24 5
mph
1015.4mb 73f 73f
9:18 2 3 mph 1015.4mb 73f 73f
9:12 2 3 mph 1015.3mb 73f 73f
9:06 2 3 mph 1015.2mb 73f 73f
9:00 2 3 mph 1015.2mb 73f 73f
8:54 2
mph
1015.2mb 73f 73f
8:48 2 3 mph 1015.2mb 73f 73f
8:42 2 3 mph 1015.1mb 73f 73f
8:36 2
mph
1015.1mb 73f 72f
8:30 2 3 mph 1015.1mb 73f 72f
8:24 1 2 mph 1015.1mb 73f 72f
8:18 1 2 mph 1015mb 72f 72f
8:12  -  1 mph 1015mb 72f 72f
8:06  -  1 mph 1015mb 72f 72f
8:00 2 3 mph 1014.9mb 73f 72f
7:54 3 5 mph 1014.9mb 73f 72f
7:48 2 3 mph 1014.9mb 73f 72f
7:42 2 3 mph 1014.8mb 73f 72f
7:36  -  1 mph 1014.8mb 72f 72f
7:30  -  1 mph 1014.8mb 73f 72f
7:24  -  1 mph 1014.7mb 73f 72f
7:18 1 3 mph 1014.6mb 73f 72f
7:12 2 5 mph 1014.6mb 73f 72f
7:06 3 5 mph 1014.5mb 73f 72f
7:00 3 5 mph 1014.5mb 73f 72f
6:54 3
mph
1014.4mb 73f 71f
6:48 1 2 mph 1014.4mb 73f 71f
6:42 2 3 mph 1014.4mb 72f 71f
6:36 2
mph
1014.3mb 72f 71f
6:30 1 2 mph 1014.2mb 72f 71f
6:24 1 2 mph 1014.2mb 72f 71f
6:18 2 3 mph 1014.1mb 72f 71f
6:12 2 3 mph 1014.1mb 72f 71f
6:06 3 5 mph 1014mb 72f 71f
6:00 3 6 mph 1013.9mb 72f 71f
5:54 3 5 mph 1013.8mb 72f 71f
5:48 3 5 mph 1013.8mb 72f 71f
5:42 3 5 mph 1013.7mb 72f 71f
5:36 3 5 mph 1013.6mb 72f 71f
5:30 2 5 mph 1013.6mb 72f 71f
5:24 3 6 mph 1013.6mb 71f 71f
5:18 3 7 mph 1013.5mb 71f 71f
5:12 5 7 mph 1013.5mb 71f 71f
5:06 6
mph
1013.5mb 71f 71f
5:00 6
mph
1013.5mb 71f 71f
4:54 3 5 mph 1013.5mb 71f 71f
4:48 5
mph
1013.5mb 71f 71f
4:42 2 3 mph 1013.5mb 72f 71f
4:36 3 5 mph 1013.4mb 72f 71f
4:30 3 5 mph 1013.4mb 73f 71f
4:24 3 5 mph 1013.3mb 73f 71f
4:18 1 2 mph 1013.3mb 73f 71f
4:12 1 2 mph 1013.3mb 73f 71f
4:06 1 2 mph 1013.4mb 73f 71f
4:00 2 3 mph 1013.3mb 73f 71f
3:54 3 6 mph 1013.4mb 73f 71f
3:48 5 6 mph 1013.3mb 73f 71f
3:42 3 5 mph 1013.3mb 73f 70f
3:36 2 3 mph 1013.3mb 73f 71f
3:30 2 3 mph 1013.1mb 73f 71f
3:24 1 2 mph 1013.1mb 73f 71f
3:18  -  1 mph 1013.1mb 73f 71f
3:12  -  1 mph 1013mb 73f 71f
3:06 1 2 mph 1013mb 73f 71f
3:00 1 2 mph 1013mb 73f 71f
2:54  -  2 mph 1013mb 73f 71f
2:48 1 2 mph 1013mb 73f 71f
2:42  -  1 mph 1013mb 73f 71f
2:36 1 2 mph 1013mb 73f 71f
2:30 1 2 mph 1013mb 73f 72f
2:24 1 2 mph 1012.9mb 73f 72f
2:18 1
mph
1012.9mb 73f 72f
2:12  -  1 mph 1012.8mb 73f 71f
2:06  -  1 mph 1012.8mb 73f 71f
2:00  -  mph 1012.9mb 73f 71f
1:54  -  1 mph 1012.8mb 73f 71f
1:48  -  1 mph 1012.8mb 73f 71f
1:42  -  1 mph 1012.8mb 73f 72f
1:36  -  1 mph 1012.8mb 73f 71f
1:30  -  2 mph 1012.9mb 73f 72f
1:24  -  mph 1012.9mb 73f 72f
1:18  -  2 mph 1012.9mb 73f 73f
1:12 1 2 mph 1012.9mb 73f 73f
1:06 2
mph
1012.9mb 73f 72f
1:00 2
mph
1012.9mb 73f 72f
12:54 1 2 mph 1013mb 73f 73f
12:48  -  1 mph 1013mb 73f 73f
12:42  -  1 mph 1013mb 73f 72f
12:36  -  1 mph 1013mb 73f 73f
12:30 1 3 mph 1013mb 73f 73f
12:24 3 5 mph 1012.9mb 73f 73f
12:18 3 5 mph 1012.9mb 73f 73f
12:12 5
mph
1012.8mb 73f 72f
12:06 3 5 mph 1012.8mb 73f 73f
12:00 3
mph
1012.9mb 73f 73f
Di 08/25 11:54 1 2 mph 1012.8mb 73f 72f
11:48 2
mph
- 73f 72f
11:42  -  1 mph - 73f 72f
11:36 1
mph
- 73f 72f
11:30  -  2 mph 1012.7mb 73f 72f
11:24 1 2 mph 1012.8mb 73f 72f
11:18 1 2 mph 1012.8mb 73f 72f
11:12 1
mph
1012.8mb 73f 72f
11:06  -  1 mph 1012.9mb 73f 72f
11:00  -  2 mph 1012.9mb 73f 72f
10:54 1 2 mph 1012.9mb 73f 72f
10:48  -  1 mph 1012.9mb 73f 72f
10:42  -  mph 1012.9mb 73f 72f
10:36  -  mph 1013mb 73f 72f
10:30  -  1 mph 1013mb 73f 72f
10:24 1 2 mph 1012.9mb 73f 72f
10:18  -  1 mph 1012.9mb 73f 72f
10:12  -  1 mph 1013mb 73f 72f
10:06 2
mph
1013mb 73f 72f
10:00 2
mph
1013.1mb 73f 72f
9:54 1 2 mph 1013.1mb 73f 72f
9:48 2
mph
1013mb 73f 72f
9:42 2 3 mph 1013mb 73f 72f
9:36 3 6 mph 1012.9mb 73f 72f
9:30 6
mph
1012.9mb 73f 72f
9:24 5 6 mph 1012.9mb 73f 72f
9:18 6 7 mph 1012.8mb 73f 72f
9:12 6 7 mph 1012.7mb 73f 72f
9:06 6 7 mph 1012.6mb 73f 72f
8:54 6 8 mph 1012.5mb 73f 72f
8:48 8 9 mph 1012.4mb 73f 72f
8:42 8 9 mph 1012.3mb 73f 72f
8:36 8 9 mph 1012.3mb 73f 72f
8:30 8 9 mph 1012.3mb 73f 72f
8:24 7 8 mph 1012.3mb 73f 72f
8:18 7
mph
1012.3mb 73f 72f
8:12 6 7 mph 1012.3mb 73f 72f
8:06 6 7 mph 1012.1mb 73f 72f
8:00 6 7 mph 1012.1mb 73f 72f
7:54 6
mph
1012.1mb 73f 72f
7:48 5 6 mph 1012.1mb 73f 72f
7:42 6
mph
1012mb 73f 72f
7:36 6
mph
1012mb 73f 72f
7:30 6 7 mph 1012mb 73f 72f
7:24 6
mph
1012mb 73f 72f
7:18 5 7 mph 1012mb 73f 72f
7:12 6 7 mph 1012mb 73f 73f
7:06 6 7 mph 1011.9mb 73f 73f
7:00 6
mph
1011.9mb 73f 73f
6:54 6
mph
1011.9mb 73f 73f
6:48 3 6 mph 1012mb 73f 73f
6:42 5 6 mph 1011.9mb 72f 73f
6:36 5
mph
1012mb 72f 73f
6:30 5 6 mph 1012mb 72f 73f
6:24 5 6 mph 1011.9mb 72f 73f
6:18 5 6 mph 1011.9mb 72f 73f
6:12 6
mph
1011.9mb 72f 73f
6:06 5 6 mph 1011.9mb 72f 73f
6:00 5 6 mph 1012mb 72f 73f
5:54 6 7 mph 1012mb 72f 73f
5:48 6
mph
1012mb 72f 73f
5:42 5 6 mph 1012.1mb 71f 73f
5:36 5 6 mph 1012.1mb 71f 73f
5:30 5 7 mph 1012.1mb 71f 73f
5:24 6 7 mph 1012.2mb 71f 73f
5:18 6 7 mph 1012.1mb 71f 73f
5:12 6 7 mph 1012.2mb 71f 73f
5:06 5 7 mph 1012.2mb 71f 73f
5:00 6 7 mph 1012.2mb 71f 73f
4:54 5 6 mph 1012.2mb 71f 73f
4:48 3 5 mph 1012.2mb 71f 73f
4:42 3 5 mph 1012.3mb 71f 73f
4:36 3 5 mph 1012.4mb 71f 73f
4:30 3 6 mph 1012.4mb 71f 73f
4:24 5 6 mph 1012.5mb 71f 73f
4:18 5 6 mph 1012.7mb 72f 72f
4:12 6 7 mph 1012.7mb 72f 72f
4:06 6 7 mph 1012.8mb 72f 72f
4:00 6 7 mph 1012.9mb 72f 72f
3:54 6 7 mph 1013mb 72f 72f
3:48 6 7 mph 1013.1mb 73f 72f
3:42 6 8 mph 1013.1mb 72f 72f
3:36 7 8 mph 1013.1mb 72f 72f
3:30 7 8 mph 1013.2mb 72f 72f
3:24 8 9 mph 1013.3mb 72f 72f
3:18 8 10 mph 1013.3mb 72f 72f
3:12 8 9 mph 1013.3mb 72f 72f
3:06 8 9 mph 1013.4mb 72f 72f
3:00 7 8 mph 1013.6mb 72f 72f
2:54 5 6 mph 1013.7mb 72f 73f
2:48 6 7 mph 1013.8mb 72f 73f
2:42 5 7 mph 1013.9mb 72f 73f
2:36 5 6 mph 1014mb 72f 73f
2:30 5 7 mph 1014.1mb 72f 73f
2:24 6 7 mph 1014mb 73f 72f
2:18 5 6 mph 1014mb 73f 72f
2:12 6 7 mph 1014.1mb 73f 72f
2:06 7
mph
1014.1mb 73f 72f
2:00 6 8 mph 1014.2mb 73f 72f
1:54 7 8 mph 1014.3mb 73f 72f
1:48 6
mph
1014.3mb 73f 72f
1:42 6
mph
1014.3mb 73f 72f
1:36 6 7 mph 1014.3mb 73f 72f
1:30 6 7 mph 1014.5mb 74f 73f
1:24 3 5 mph 1014.5mb 74f 74f
1:18 1 6 mph 1014.6mb 74f 74f
1:12 3 6 mph 1014.6mb 74f 73f
1:06 5 7 mph 1014.8mb 74f 73f
1:00 5 7 mph 1014.9mb 73f 73f
12:54 7 10 mph 1015mb 73f 72f
12:48 9 13 mph 1015.1mb 73f 72f
12:42 8 11 mph 1015.1mb 73f 72f
12:36 9 14 mph 1015.1mb 73f 72f
12:30 7 9 mph 1015.1mb 73f 72f
12:24 8 11 mph 1015.1mb 73f 72f
12:18 8 11 mph 1015.1mb 73f 72f
12:12 10 13 mph 1015.1mb 73f 72f
12:06 10 15 mph 1015.2mb 73f 72f
12:00 13 15 mph 1015.3mb 73f 71f
11:54 11 16 mph 1015.3mb 73f 71f
11:48 13 14 mph 1015.4mb 73f 71f
11:42 9 11 mph 1015.5mb 73f 71f
11:36 6 10 mph 1015.6mb 73f 71f
11:30 7 9 mph 1015.6mb 73f 71f
11:24 10 11 mph 1015.7mb 73f 71f
11:18 3 6 mph 1015.6mb 73f 71f
11:12 5 7 mph 1015.5mb 73f 71f
11:06 3 6 mph 1015.5mb 73f 71f
11:00 6 7 mph 1015.5mb 73f 71f
10:54 5 7 mph 1015.4mb 73f 71f
10:48 6 9 mph 1015.4mb 72f 71f
10:42 8 10 mph 1015.4mb 72f 71f
10:36 6 9 mph 1015.3mb 72f 71f
10:30 7 10 mph 1015.3mb 71f 71f
10:24 7 9 mph 1015.3mb 71f 71f
10:18 8 14 mph 1015.1mb 71f 71f
10:12 11 14 mph 1015.1mb 71f 71f
10:06 9 11 mph 1015.2mb 70f 72f
10:00 8 10 mph 1015.1mb 69f 72f
9:54 7 9 mph 1015mb 70f 72f
9:48 5 6 mph 1014.7mb 72f 72f
9:42 3 5 mph 1014.5mb 72f 72f
9:36 2 3 mph 1014.3mb 71f 72f
9:30 5 6 mph 1014.3mb 70f 72f
9:24 5 6 mph 1014.3mb 69f 72f
9:18 3 7 mph 1014.3mb 69f 72f
9:12 6 7 mph 1014.2mb 68f 72f
9:06 6 8 mph 1014.1mb 68f 72f
9:00 6 8 mph 1014.2mb 69f 72f
8:54 6 8 mph 1014.2mb 69f 72f
8:48 3 6 mph 1014.2mb 69f 72f
8:42 3 6 mph 1014.2mb 69f 72f
8:36 3 5 mph 1014.1mb 69f 72f
8:30 1 3 mph - 70f 72f
8:24 2 6 mph - 71f 72f
8:18 3 5 mph 1014.1mb 70f 72f
8:12 1 5 mph 1014.1mb 69f 72f
8:06 3 5 mph 1014mb 69f 71f
8:00 2 5 mph 1014mb 69f 72f
7:54 5 6 mph 1014.1mb 69f 71f
7:48 2 5 mph 1014mb 69f 71f
7:42 5 6 mph 1013.9mb 69f 71f
7:36 2 5 mph 1013.9mb 71f 71f
7:30 3 5 mph 1013.9mb 72f 71f
7:24 2 3 mph 1013.9mb 73f 71f
7:18 1 3 mph - 73f 71f
7:12 3 5 mph - 73f 71f
7:06 5 6 mph - 72f 71f
7:00 5 7 mph 1013.7mb 72f 71f
6:54 6 8 mph 1013.6mb 72f 71f
6:48 5 6 mph 1013.4mb 71f 71f
6:42 3 6 mph 1013.4mb 71f 71f
6:36 7 9 mph 1013.4mb 71f 71f
6:30 7 8 mph 1013.4mb 71f 71f
6:24 5
mph
1013.4mb 71f 71f
6:18 3 5 mph 1013.3mb 71f 71f
6:12 3
mph
1013.3mb 71f 71f
6:06 3
mph
1013.3mb 71f 71f
6:00 3 9 mph 1013.3mb 71f 71f
5:54 6 8 mph 1013.2mb 71f 70f
5:48 3 6 mph 1013mb 71f 70f
5:42 5 7 mph 1013.1mb 71f 70f
5:36 3 7 mph 1013mb 71f 70f
5:30 5 6 mph 1012.9mb 71f 70f
5:24 5 6 mph 1012.9mb 71f 70f
5:18 3 9 mph 1012.8mb 71f 70f
5:12 6 8 mph 1012.7mb 71f 70f
5:06 7 9 mph 1012.6mb 71f 70f
5:00 6 7 mph 1012.5mb 71f 70f
4:54 7 9 mph 1012.5mb 71f 70f
4:48 5 6 mph 1012.3mb 71f 70f
4:42 3 5 mph 1012.4mb 71f 70f
4:36 3 5 mph 1012.3mb 71f 70f
4:30 3 6 mph 1012.3mb 71f 70f
4:24 2 3 mph 1012.3mb 71f 70f
4:18 3 5 mph 1012.3mb 72f 70f
4:12 3 6 mph 1012.4mb 72f 70f
4:06 5 6 mph 1012.5mb 72f 70f
4:00 2 3 mph 1012.4mb 72f 70f
3:54 1
mph
1012.2mb 73f 70f
3:48  -  2 mph 1012.1mb 73f 70f
3:42 2
mph
1012.2mb 73f 70f
3:36 3 5 mph 1012.3mb 73f 70f
3:30 3 6 mph 1012.4mb 73f 70f
3:24 5 6 mph 1012.3mb 73f 70f
3:18 3
mph
1012.3mb 72f 70f
3:12 1 2 mph 1012.2mb 72f 70f
3:06  -  1 mph 1012.3mb 73f 70f
3:00  -  1 mph 1012.3mb 73f 70f
2:54  -  2 mph 1012.4mb 73f 70f
2:48 2
mph
1012.4mb 73f 70f
2:42 2 3 mph 1012.4mb 74f 69f
2:36 3 5 mph 1012.4mb 74f 69f
2:30 5
mph
1012.4mb 74f 69f
2:24 2 3 mph 1012.4mb 74f 69f
2:18 2
mph
1012.4mb 74f 69f
2:12 1 2 mph 1012.4mb 74f 69f
2:06 2
mph
1012.5mb 74f 69f
2:00 2
mph
1012.5mb 74f 69f
1:54 2 3 mph 1012.5mb 74f 69f
1:48 3
mph
1012.5mb 74f 69f
1:42 2 3 mph 1012.5mb 74f 69f
1:36 2 3 mph 1012.5mb 74f 69f
1:30 3
mph
1012.6mb 74f 69f